Helicity
-23 -22 -21 -5 -7 -2 -12 -33 78 104 67 219 330 198 140 117 6 180 328 210 154 174 208 152 103 100 140 90 94 80 119 110 108 98 75 54 51 36 44 42 35 44 60 70 97 88 64 116 115 146 182 111 134 94
-17 -26 -28 -32 10 46 26 54 85 332 261 269 253 180 134 38 57 258 310 202 204 174 164 178 246 216 203 158 101 68 83 68 80 95 113 92 81 71 77 36 62 65 75 93 78 105 138 82 114 121 115 105 111 109
63 88 95 1 163 183 236 353 193 134 238 224 162 139 84 8 77 227 204 165 168 181 154 126 122 135 163 265 268 148 156 118 100 143 104 107 83 70 77 62 85 83 99 112 115 118 112 110 106 118 136 134 102 97
131 191 285 219 144 156 104 100 191 211 150 132 126 94 32 32 59 256 235 179 136 131 149 128 92 146 175 144 149 188 137 170 132 130 149 126 111 77 90 106 88 144 92 95 93 72 130 109 213 169 108 89 119 128
122 92 121 104 133 167 173 152 131 114 126 116 101 92 60 51 94 154 116 178 191 172 120 121 92 169 165 135 120 95 71 114 137 164 155 146 134 126 133 134 118 106 150 120 127 182 145 133 232 129 137 162 168 168
157 160 157 164 145 117 104 93 87 85 76 77 77 79 74 105 147 91 79 94 145 130 100 182 139 167 167 161 168 154 151 163 158 183 174 166 140 128 131 131 194 165 160 152 162 160 148 148 188 180 227 245 240 263
151 150 138 134 115 96 79 67 64 65 72 78 84 96 117 141 172 141 78 82 78 70 111 173 174 141 171 142 203 181 182 180 190 177 188 167 158 158 172 153 174 166 160 174 168 146 192 249 228 242 218 197 227 236
180 199 163 144 144 144 150 120 96 112 115 127 146 168 226 137 61 116 149 104 33 72 102 128 152 177 228 196 191 222 198 193 220 181 182 182 184 212 203 218 230 216 242 227 202 236 267 246 222 215 204 181 191 156
115 124 154 161 168 184 171 176 175 162 192 241 246 233 202 159 125 150 227 32 50 93 120 126 147 158 165 169 184 186 186 182 151 190 191 161 186 202 227 224 249 249 235 203 219 189 187 202 190 162 127 105 112 106
167 175 222 217 157 183 163 135 133 151 181 227 215 230 182 203 233 232 238 97 94 81 106 99 129 124 154 164 178 171 165 130 147 157 150 205 226 229 250 258 245 212 159 133 175 175 160 150 125 100 116 114 101 104
210 207 168 203 219 247 207 116 122 125 160 253 196 181 218 198 118 118 79 76 66 113 103 124 153 134 162 149 161 168 141 139 138 136 150 159 182 190 223 228 188 152 164 142 160 120 115 119 113 97 110 121 113 110
157 162 174 190 176 338 194 200 162 175 184 136 178 165 76 126 107 155 144 107 116 111 116 151 169 158 154 144 141 143 147 137 140 130 167 186 208 227 222 193 155 174 187 167 135 132 121 125 128 133 122 130 135 118
160 163 160 189 173 157 191 290 246 159 203 208 236 233 192 144 125 111 122 141 105 113 144 137 171 160 154 163 164 145 128 154 143 182 204 242 208 240 227 206 180 169 151 128 129 143 144 147 147 141 149 145 97 120
155 162 180 187 186 191 182 132 152 191 245 270 287 232 183 139 128 113 144 132 118 111 133 165 194 156 161 164 145 146 178 186 179 178 184 179 169 205 198 129 131 146 147 144 148 142 136 138 148 146 138 125 124 125
147 193 185 259 210 202 193 184 213 145 141 155 164 177 150 114 115 157 112 94 148 145 153 171 187 171 175 165 175 192 174 187 173 208 162 167 169 170 146 118 145 146 132 118 135 148 142 120 126 148 142 133 119 106
102 136 244 250 208 193 160 151 185 98 134 139 160 160 150 180 160 123 144 156 182 173 166 157 169 192 205 184 176 177 189 194 197 206 147 139 159 140 132 169 155 153 145 148 148 145 149 164 146 137 127 127 98 103
115 105 177 158 196 189 166 101 104 93 86 92 118 151 132 136 133 139 146 141 155 168 203 166 167 163 132 139 195 232 251 193 153 128 122 119 152 174 193 173 159 152 154 157 153 154 148 141 133 136 139 126 98 89
38 52 76 53 39 79 198 170 111 115 151 177 152 180 176 178 154 163 171 184 167 160 183 197 181 190 187 184 157 119 128 142 139 138 155 152 143 136 118 130 143 157 178 157 136 133 140 129 134 139 125 112 86 98
24 68 87 64 37 14 41 95 86 144 199 179 162 148 156 143 125 118 98 79 70 76 78 97 120 151 156 157 129 116 121 140 171 206 209 182 145 152 169 211 200 155 138 131 126 144 150 168 158 141 123 101 93 91
-15 64 97 78 15 27 27 51 61 81 130 107 107 120 108 104 93 120 145 153 147 133 156 154 152 132 145 154 176 114 119 114 135 152 163 161 174 186 167 146 155 163 158 158 173 168 148 140 143 126 111 92 88 92
10 67 63 21 35 31 25 38 49 69 73 75 85 89 84 90 106 127 143 163 140 164 170 182 158 145 128 137 153 166 170 109 123 119 127 140 154 173 192 196 190 187 183 183 171 158 162 155 132 107 93 87 97 84
27 56 29 50 27 34 47 76 65 57 61 63 66 56 75 86 88 96 85 99 121 130 117 119 126 120 133 178 187 187 178 200 207 243 241 219 185 181 187 187 186 204 200 183 168 153 139 129 117 98 90 106 87 105
26 51 68 75 58 71 64 71 83 86 87 94 97 107 112 113 114 94 117 112 117 127 112 110 124 137 145 173 216 249 232 194 204 222 240 238 232 216 204 212 201 181 163 161 146 135 130 106 109 99 105 105 119 141
44 67 81 84 110 112 93 129 117 123 120 118 111 110 116 113 96 125 138 137 133 126 138 119 101 100 117 154 183 235 264 234 228 214 182 169 184 191 181 176 171 167 154 132 128 121 117 114 104 107 124 126 146 148
66 81 77 114 107 112 127 123 128 114 122 109 95 101 102 77 111 131 134 119 124 129 117 101 106 126 125 134 152 171 183 144 128 158 208 170 137 135 144 137 135 137 130 126 131 121 116 109 117 137 143 140 144 128
99 123 103 114 108 102 93 84 89 82 72 72 67 40 16 39 79 104 73 59 55 76 103 123 114 103 131 135 114 116 140 147 119 136 154 156 152 128 119 119 106 127 134 118 109 113 124 138 143 141 133 122 110 101
56 53 19 -0 11 17 16 13 12 14 15 17 10 6 -2 20 32 30 35 48 47 53 64 79 95 100 92 80 80 87 94 119 131 111 105 120 133 148 154 149 150 133 97 110 106 110 122 126 126 123 113 98 105 111
-2 -4 12 -3 1 -1 5 9 9 13 11 5 3 28 36 56 61 50 62 61 63 60 59 61 70 76 82 91 95 97 105 97 91 84 85 98 109 108 109 97 101 94 90 106 103 92 103 105 99 89 90 93 94 89
6 -15 -14 -0 -5 1 5 9 14 20 14 19 40 54 58 71 74 83 78 82 84 87 88 83 86 79 89 101 117 125 133 137 128 124 123 113 106 109 101 90 84 84 85 87 86 85 90 89 83 86 85 82 81 76
1 -19 -1 6 14 24 29 35 42 43 56 69 77 85 98 105 124 128 132 138 135 130 115 113 115 123 132 132 132 129 126 123 118 123 111 112 113 95 75 77 82 85 82 83 91 89 77 87 71 66 73 75 76 88
-2 9 29 39 52 62 63 52 55 70 73 93 127 133 119 99 104 131 143 131 123 126 126 137 149 148 149 147 140 126 115 99 86 84 80 67 67 67 75 88 81 88 86 83 88 84 87 83 78 75 74 79 77 74
36 53 55 65 81 88 82 97 90 99 98 91 93 84 77 77 93 88 111 116 111 118 119 117 121 127 110 98 84 75 72 64 57 67 64 73 70 71 78 81 78 83 81 83 78 75 74 75 73 71 71 68 76 76
51 63 76 78 79 80 80 63 78 82 87 89 85 86 98 102 93 73 63 76 91 103 112 108 92 82 76 65 65 55 42 57 70 56 57 65 67 74 79 78 82 84 78 75 73 69 66 64 67 67 69 70 71 72
Wind_Speed
87 85 83 83 84 85 87 90 91 105 102 106 107 110 108 109 102 83 54 49 51 46 48 55 60 76 63 63 51 38 35 40 39 39 40 39 39 38 37 35 30 29 27 34 34 41 51 30 33 43 44 50 57 59
79 78 78 78 81 82 88 95 95 105 103 102 107 105 105 99 93 80 54 43 30 42 46 41 44 43 56 56 57 44 49 36 37 37 39 37 39 37 41 41 35 39 36 40 33 42 34 28 44 45 49 53 56 59
74 74 74 77 81 88 97 100 100 98 103 104 105 103 103 100 96 67 45 42 35 40 38 47 52 43 44 50 46 46 47 35 35 36 31 35 39 32 38 44 39 36 31 38 42 35 40 41 44 43 50 55 58 59
75 75 73 88 92 97 94 95 101 99 99 102 97 97 99 93 86 71 45 43 39 38 48 51 41 47 45 46 45 43 30 31 24 29 35 37 39 35 39 42 39 40 29 38 40 46 43 38 45 52 58 57 57 58
88 85 77 72 71 77 85 85 87 90 90 89 90 88 88 83 77 58 40 34 32 42 52 46 34 36 37 37 37 32 26 27 31 36 38 39 34 34 38 39 39 35 41 42 44 43 46 49 55 57 55 56 57 57
62 62 62 63 63 67 72 78 82 84 87 87 86 86 83 74 62 50 42 34 33 31 37 49 38 36 28 24 25 26 27 30 32 34 37 34 34 37 39 43 37 37 39 40 43 50 47 47 47 49 49 52 53 53
60 55 49 44 41 45 52 61 69 73 75 78 79 74 70 68 50 43 40 40 33 28 33 39 41 36 31 29 32 29 28 32 34 34 39 37 37 35 41 46 38 41 41 40 45 47 36 45 46 45 47 47 47 47
39 38 36 33 30 30 32 37 41 44 46 47 48 52 57 49 34 35 30 26 28 33 31 37 41 40 35 38 39 36 35 33 38 37 38 40 38 41 46 39 39 43 35 42 42 41 37 39 41 42 41 40 44 44
32 31 33 34 35 35 34 35 38 41 43 44 44 47 49 47 42 39 36 26 30 35 36 34 40 45 35 36 34 35 36 41 37 42 41 38 41 45 41 38 39 40 40 36 38 38 37 36 36 35 36 37 39 40
25 24 23 24 26 25 26 29 33 35 37 38 44 41 46 42 37 36 30 40 33 32 31 32 30 33 34 36 37 36 37 38 45 43 35 44 47 38 36 36 38 39 37 29 35 38 33 33 31 30 34 36 38 41
18 20 15 13 13 10 15 19 29 34 43 41 39 43 44 32 35 35 35 35 33 36 33 31 30 29 30 35 35 36 36 37 45 43 43 46 49 38 32 33 35 35 33 27 25 25 26 27 29 32 35 40 42 45
14 13 10 8 6 9 8 9 16 26 31 33 33 29 34 33 31 35 34 33 32 34 30 31 29 26 26 26 32 34 40 40 50 34 43 53 43 29 25 24 24 24 23 22 23 24 27 31 35 37 38 41 43 45
10 7 8 6 4 3 3 4 1 14 33 26 27 28 32 33 32 34 36 35 34 29 28 25 28 30 27 29 34 37 43 46 35 46 52 50 31 19 16 16 19 20 21 23 25 29 31 34 36 37 39 41 41 44
12 12 13 12 10 8 8 9 16 14 20 25 30 32 33 37 35 35 35 31 29 25 20 20 28 32 32 34 36 42 41 40 52 58 56 36 20 14 14 13 15 18 24 26 28 31 33 33 35 37 39 41 44 47
18 15 15 19 17 15 14 15 17 23 29 24 29 34 33 30 29 31 28 25 27 26 25 27 32 34 36 37 37 37 43 51 49 52 44 23 11 8 9 12 17 20 25 28 30 31 32 32 34 37 40 43 45 49
17 15 18 23 20 20 19 17 16 20 25 28 27 29 27 29 29 26 24 24 27 25 26 29 33 38 41 38 40 42 44 48 43 36 24 9 5 7 10 16 20 24 26 28 29 30 32 34 35 37 40 46 49 52
16 17 23 21 21 21 21 18 22 25 28 30 29 25 27 23 26 28 27 27 30 26 33 35 38 37 32 37 39 40 42 38 28 23 17 10 9 10 15 19 24 24 25 27 30 33 35 36 37 41 47 50 53 54
23 25 25 23 20 19 19 21 22 26 26 26 25 27 25 26 26 28 30 31 28 27 32 35 32 36 37 39 38 31 28 25 22 19 19 16 13 14 16 21 21 23 26 30 33 34 37 39 42 47 50 54 56 60
30 31 29 27 25 24 25 27 28 25 25 25 24 25 24 25 26 27 28 28 27 28 28 33 36 38 38 38 34 28 25 25 23 23 22 22 19 18 20 23 24 26 29 32 34 38 40 43 46 50 53 58 63 65
31 36 34 31 29 26 28 30 29 28 30 29 28 29 28 29 30 33 33 33 32 33 36 39 40 39 38 38 37 28 23 18 18 21 24 24 23 21 23 25 28 29 32 35 39 42 43 45 50 54 58 61 66 70
33 34 35 32 31 30 27 30 29 27 26 27 27 28 30 31 33 35 35 38 33 37 37 38 36 35 33 34 33 30 28 22 24 26 25 24 25 26 28 30 31 34 36 40 45 46 48 53 55 58 62 65 68 70
34 33 33 35 31 31 30 34 28 28 29 27 30 32 33 34 34 36 36 34 33 35 36 38 38 35 33 34 34 32 31 28 29 28 25 24 28 30 32 33 35 39 42 45 48 51 53 54 58 62 65 69 70 71
37 37 35 37 32 33 32 35 31 33 33 33 33 34 35 35 36 36 34 33 33 42 41 39 37 35 33 34 34 36 36 32 32 31 31 31 31 31 33 35 38 42 45 48 49 52 56 57 61 66 67 70 73 74
42 37 38 37 37 34 33 34 33 32 32 34 35 37 38 37 37 37 38 37 42 44 44 42 38 36 36 37 39 41 40 35 32 33 34 31 34 36 35 37 40 43 46 48 51 56 59 63 65 68 71 73 73 74
38 43 40 40 38 35 34 34 36 35 37 36 37 38 38 37 40 41 41 40 44 45 46 45 41 39 37 36 37 38 40 38 36 36 39 36 35 36 39 40 42 46 50 55 59 62 64 66 69 71 72 72 73 72
38 44 39 39 37 34 34 34 34 35 35 35 36 36 37 37 40 43 39 42 43 45 47 47 44 40 39 40 40 41 43 41 35 37 39 39 41 42 44 46 49 50 54 57 62 67 69 70 71 72 71 69 67 66
39 40 39 36 33 31 30 32 32 34 35 37 37 38 38 40 40 37 35 42 40 41 42 42 41 39 38 38 38 38 38 39 37 35 36 40 42 45 48 52 55 56 59 61 63 67 70 70 70 68 66 64 63 62
37 37 35 36 33 33 31 33 34 36 37 39 40 40 40 41 39 36 37 38 36 36 37 39 39 38 37 37 37 37 38 38 37 38 38 40 44 46 50 52 54 57 59 61 64 64 66 66 65 64 63 62 60 56
36 36 34 34 34 35 36 36 36 37 41 41 42 39 38 36 37 37 39 39 38 37 38 39 40 38 38 39 40 42 44 46 47 49 52 54 55 55 59 60 61 62 63 65 64 63 64 63 61 59 57 56 55 53
35 37 34 36 36 36 37 41 40 40 41 39 35 33 34 34 39 40 41 42 42 42 42 42 43 44 45 45 45 45 45 47 50 54 59 61 64 64 64 65 66 65 64 66 67 66 62 60 59 54 53 54 53 54
38 39 37 39 38 39 42 42 37 36 38 40 42 39 37 34 35 41 44 44 43 43 42 43 43 44 44 45 47 49 50 50 54 57 59 61 63 64 64 65 64 64 65 65 65 64 63 62 59 58 56 57 56 55
42 42 43 43 42 42 43 41 40 40 39 40 41 39 36 37 41 40 45 45 40 40 41 41 41 42 44 46 47 48 49 56 60 63 64 65 65 65 64 63 63 63 63 62 62 61 59 59 57 57 56 56 56 55
43 44 44 43 42 42 43 45 41 40 40 40 40 40 39 39 38 36 36 42 41 41 42 43 44 44 45 49 53 54 55 59 62 63 63 62 61 61 61 60 60 59 58 57 58 57 55 54 53 53 54 53 53 53
Wind_Direction
168 173 180 188 193 196 193 192 195 192 196 196 193 191 193 195 197 206 221 226 220 218 215 221 221 219 224 223 227 232 241 253 257 261 261 265 271 272 280 289 299 303 308 305 308 308 306 338 340 324 331 330 330 330
170 173 180 182 185 187 189 187 186 184 183 186 187 190 192 194 197 204 216 221 224 222 222 226 227 231 227 233 234 233 251 252 258 260 266 273 274 281 281 289 299 297 303 307 314 317 335 340 332 334 332 330 330 330
169 169 174 174 178 175 172 174 174 176 178 180 183 187 189 192 196 203 217 218 223 222 223 224 225 234 240 238 243 243 248 257 261 272 276 281 280 293 290 288 302 312 325 314 320 335 330 332 332 336 336 332 331 330
158 160 164 157 156 158 167 170 170 175 177 179 184 187 189 192 197 205 221 227 230 227 225 228 238 236 246 242 244 253 256 266 272 276 279 283 287 298 296 302 307 316 327 322 321 323 330 337 337 334 331 332 333 332
135 140 146 153 159 164 166 170 173 176 180 183 185 188 190 193 196 211 223 232 234 232 226 226 233 248 248 246 246 253 255 261 268 273 280 285 297 303 305 309 309 322 320 318 319 330 327 326 331 333 334 335 337 337
140 142 145 150 155 162 168 172 175 178 180 183 186 188 189 191 196 208 224 237 235 244 232 224 238 241 248 247 248 253 262 269 274 280 283 295 303 302 302 301 314 325 326 326 322 325 328 332 339 340 341 342 343 345
132 133 135 139 145 158 169 174 178 180 182 184 186 187 186 189 208 228 231 224 229 242 236 227 231 242 249 251 257 263 274 275 281 284 287 293 299 302 301 302 315 321 323 326 328 329 331 338 335 342 343 347 352 355
115 115 114 116 118 126 138 153 159 162 165 167 169 175 181 196 212 229 228 230 236 242 245 235 240 238 254 250 255 271 271 279 287 288 293 293 301 302 299 309 318 323 330 330 334 339 338 340 342 346 351 356 355 356
102 98 94 98 95 100 108 117 124 135 132 137 152 168 188 210 219 221 228 238 244 248 243 247 234 240 253 257 266 273 278 277 291 286 291 297 296 296 305 310 316 323 323 327 335 338 340 342 346 351 354 357 0 360
91 89 103 96 90 99 115 124 135 139 140 156 175 196 203 212 217 220 239 236 248 255 260 253 255 253 257 258 267 274 283 283 283 289 300 293 295 306 313 317 320 323 326 331 331 331 341 346 354 0 1 1 359 357
73 67 87 116 105 92 156 158 165 170 179 193 202 204 199 210 214 231 237 240 249 250 260 261 264 259 276 265 268 281 283 289 286 291 291 296 298 304 315 319 325 329 333 335 350 359 4 6 2 358 355 353 352 351
55 50 55 59 19 192 82 123 185 192 201 203 192 198 207 227 239 241 244 249 256 255 267 263 269 278 284 290 283 284 285 290 288 300 296 295 305 312 319 328 340 353 3 10 12 7 3 357 352 351 351 352 353 354
19 16 11 354 321 331 283 235 124 195 198 207 215 230 240 249 249 249 248 256 263 274 274 273 271 282 292 294 290 290 286 288 299 295 295 300 308 314 323 337 345 356 1 360 356 353 353 352 353 353 353 355 355 356
358 358 359 348 332 299 263 244 240 258 236 243 242 239 251 251 258 265 263 268 277 283 285 282 282 286 291 291 294 289 294 296 290 290 295 306 301 305 325 339 346 346 343 348 348 348 349 351 353 356 357 356 354 353
356 338 324 321 305 304 306 302 280 263 258 269 268 259 264 272 276 271 278 281 282 284 287 289 292 293 293 293 296 296 293 291 295 299 307 308 302 314 333 344 343 342 341 341 345 347 350 351 352 353 353 353 353 351
267 301 309 300 304 307 298 307 286 275 269 270 286 280 279 275 279 288 295 294 298 300 305 305 297 294 291 294 292 292 293 295 305 312 324 341 336 334 335 337 339 339 340 343 348 349 349 349 349 349 350 349 348 348
313 295 282 281 297 320 321 297 292 285 281 280 284 293 287 294 289 295 302 305 304 309 297 301 293 293 305 297 294 298 298 307 320 329 342 345 336 331 333 335 335 339 343 345 346 345 345 347 348 345 342 344 344 344
340 314 303 293 293 310 301 302 296 293 289 292 293 299 303 302 301 306 304 308 312 310 302 297 304 296 296 295 301 314 320 331 338 341 344 348 345 337 333 334 339 341 342 341 342 343 344 342 341 341 341 341 341 341
357 343 333 323 319 318 307 301 299 295 301 304 312 318 317 316 326 325 324 322 319 313 310 306 304 302 305 313 316 319 321 321 326 330 338 340 341 340 340 340 339 337 338 339 339 339 340 342 341 340 340 339 338 339
356 349 343 341 332 326 314 310 316 306 297 303 306 306 310 310 315 319 323 320 317 311 310 307 308 312 314 318 323 324 329 336 335 332 331 335 334 335 333 332 330 334 336 338 339 338 337 337 339 339 338 338 337 336
343 327 331 345 343 345 333 321 325 322 319 315 318 318 318 322 321 318 318 324 323 317 315 320 321 324 331 330 330 332 333 327 323 322 322 324 329 329 330 332 333 332 332 333 331 334 336 334 336 336 336 335 335 335
321 310 342 341 343 339 338 335 328 328 323 321 320 320 318 317 320 322 323 326 324 328 327 324 325 328 333 334 335 334 331 332 333 335 336 333 325 326 327 329 329 328 330 332 332 331 332 335 335 335 334 334 335 335
343 349 354 343 339 335 331 332 326 323 313 314 320 314 316 318 322 326 321 327 329 328 329 329 331 332 331 332 334 334 334 333 331 332 331 330 331 332 332 333 334 329 329 332 334 334 333 334 334 333 334 334 334 335
20 15 337 334 334 322 335 331 334 330 329 320 318 315 316 320 325 321 315 321 325 327 329 329 328 326 328 328 326 327 329 332 334 336 335 332 329 330 335 335 336 336 335 335 335 333 333 332 334 333 333 333 334 335
341 332 338 337 337 331 325 325 324 323 319 322 318 317 319 325 317 317 317 320 326 327 327 330 330 329 327 328 329 330 334 333 330 329 333 337 333 332 332 336 338 338 337 333 332 332 332 333 333 333 333 333 334 335
344 342 340 336 338 337 332 328 328 329 329 328 327 327 328 325 319 314 324 328 328 329 328 327 327 328 329 330 327 327 327 332 334 330 333 336 333 331 330 330 330 332 338 336 333 331 331 332 332 332 333 334 336 337
352 348 4 5 354 350 345 343 339 335 332 327 330 329 328 321 321 330 338 338 336 339 343 343 342 339 337 336 339 340 340 339 338 338 339 340 340 338 335 331 330 331 334 334 334 332 331 332 332 334 334 335 337 338
13 12 3 360 1 356 347 343 338 334 333 332 328 326 325 325 327 339 344 348 354 357 359 359 359 357 352 350 348 346 344 343 344 343 341 341 340 340 339 337 337 336 335 335 335 335 333 333 333 334 334 335 337 340
15 17 17 4 0 356 350 345 342 343 342 335 330 331 333 344 344 344 343 345 346 347 347 347 347 348 348 348 346 345 342 338 334 331 329 328 329 331 335 334 334 333 334 333 334 334 334 334 334 335 336 337 339 341
11 3 8 1 357 352 350 345 345 348 348 349 351 351 349 348 344 344 342 340 337 336 337 337 337 336 334 334 334 336 342 342 338 333 328 326 327 329 330 330 330 332 333 332 332 333 335 336 336 337 337 337 339 340
348 346 354 350 349 347 344 346 351 354 349 347 346 343 342 344 346 348 343 341 339 338 338 338 340 340 339 338 336 334 334 338 338 336 334 330 329 329 329 330 331 332 331 331 332 332 332 333 333 333 334 334 336 337
348 347 345 344 345 345 345 347 345 343 344 342 340 344 345 342 337 343 343 342 346 346 346 347 347 346 346 344 343 341 338 334 333 332 331 330 329 329 330 331 331 331 331 331 331 332 332 332 332 332 333 333 335 336
349 348 347 346 346 345 345 342 344 345 345 343 343 343 343 343 345 351 357 352 351 350 350 350 350 349 346 342 339 337 336 334 333 332 332 332 332 332 333 333 333 334 334 334 334 334 334 334 334 334 334 334 335 336